FENGYUN 2G

Last updated on Sun Oct 26 2025 00:02:30 GMT+0000 (Coordinated Universal Time)

1 40367U 14090A 25298.42350513 -.00000285 00000+0 00000+0 0 9997 2 40367 5.0424 75.6589 0003709 182.4487 27.6972 1.00262808 39642
UTC large
Height (km)
Speed (km/s)
/
Latitude / Longitude
Inclination (degrees)
Orbital Period (minutes)
Azimuth
Elevation
Range (km)
Doppler Factor

Next 0 passes for location: London (51.5072 / 0.1276)

Sorry there are no passes over London.